timestamp,wind_dir_avg,wind_spd_avg,wind_spd_max_dir,wind_spd_gust,battery_voltage,lat,long
2023-07-22 00:04:00+00:00,200.0,4.26,200.0,4.72,12.57,47.59359,-54.27349
2023-07-22 00:14:00+00:00,204.0,4.28,203.0,4.75,12.41,47.59359,-54.27349
2023-07-22 00:24:00+00:00,197.0,4.13,198.0,4.71,12.41,47.59359,-54.27349
2023-07-22 00:34:00+00:00,191.0,4.3,191.0,4.55,12.41,47.59359,-54.27349
2023-07-22 00:44:00+00:00,197.0,4.69,194.0,5.06,12.41,47.59359,-54.27349
2023-07-22 00:54:00+00:00,195.0,5.04,197.0,5.4,12.41,47.59359,-54.27349
2023-07-22 01:04:00+00:00,190.0,4.86,192.0,5.26,12.41,47.59359,-54.27349
2023-07-22 01:14:00+00:00,196.0,3.83,196.0,4.25,12.41,47.59359,-54.27349
2023-07-22 01:24:00+00:00,192.0,3.36,195.0,3.85,12.41,47.59359,-54.27349
2023-07-22 01:34:00+00:00,202.0,4.22,207.0,5.06,12.41,47.59359,-54.27349
2023-07-22 01:44:00+00:00,210.0,4.21,207.0,4.75,12.41,47.59359,-54.27349
2023-07-22 01:54:00+00:00,222.0,2.75,226.0,3.12,12.41,47.59359,-54.27349
2023-07-22 02:04:00+00:00,216.0,2.83,219.0,3.21,12.41,47.59359,-54.27349
2023-07-22 02:14:00+00:00,189.0,2.96,191.0,3.25,12.41,47.59359,-54.27349
2023-07-22 02:24:00+00:00,178.0,3.15,182.0,3.39,12.41,47.59359,-54.27349
2023-07-22 02:34:00+00:00,199.0,3.71,201.0,3.9,12.41,47.59359,-54.27349
2023-07-22 02:44:00+00:00,192.0,3.73,191.0,3.94,12.41,47.59359,-54.27349
2023-07-22 02:54:00+00:00,198.0,3.25,200.0,3.35,12.41,47.59359,-54.27349
2023-07-22 03:04:00+00:00,183.0,3.29,184.0,3.39,12.41,47.59359,-54.27349
2023-07-22 03:14:00+00:00,184.0,2.89,183.0,2.99,12.41,47.59359,-54.27349
2023-07-22 03:24:00+00:00,180.0,2.45,180.0,2.5,12.41,47.59359,-54.27349
2023-07-22 03:34:00+00:00,178.0,2.35,177.0,2.46,12.41,47.59359,-54.27349
2023-07-22 03:44:00+00:00,170.0,2.42,169.0,2.65,12.41,47.59359,-54.27349
2023-07-22 03:54:00+00:00,178.0,0.96,181.0,1.07,12.41,47.59359,-54.27349
2023-07-22 04:04:00+00:00,177.0,2.8,177.0,2.88,12.41,47.59359,-54.27349
2023-07-22 04:14:00+00:00,186.0,2.76,186.0,2.99,12.33,47.59359,-54.27349
2023-07-22 04:24:00+00:00,186.0,1.94,187.0,2.08,12.33,47.59359,-54.27349
2023-07-22 04:34:00+00:00,203.0,1.95,201.0,2.11,12.33,47.59359,-54.27349
2023-07-22 04:44:00+00:00,208.0,2.21,208.0,2.26,12.33,47.59359,-54.27349
2023-07-22 04:54:00+00:00,198.0,1.91,200.0,1.99,12.33,47.59359,-54.27349
2023-07-22 05:04:00+00:00,202.0,1.69,201.0,1.87,12.33,47.59359,-54.27349
2023-07-22 05:14:00+00:00,205.0,1.29,207.0,1.35,12.33,47.59359,-54.27349
2023-07-22 05:24:00+00:00,246.0,0.72,236.0,0.83,12.33,47.59359,-54.27349
2023-07-22 05:34:00+00:00,229.0,0.7,232.0,0.76,12.33,47.59359,-54.27349
2023-07-22 05:44:00+00:00,207.0,0.64,210.0,0.68,12.33,47.59359,-54.27349
2023-07-22 05:54:00+00:00,198.0,0.4,200.0,0.44,12.33,47.59359,-54.27349
2023-07-22 06:04:00+00:00,226.0,0.37,234.0,0.45,12.33,47.59359,-54.27349
2023-07-22 06:14:00+00:00,183.0,0.29,188.0,0.35,12.33,47.59359,-54.27349
2023-07-22 06:24:00+00:00,221.0,0.4,217.0,0.49,12.33,47.59359,-54.27349
2023-07-22 06:34:00+00:00,184.0,0.47,185.0,0.52,12.33,47.59359,-54.27349
2023-07-22 06:44:00+00:00,108.0,0.31,106.0,0.35,12.33,47.59359,-54.27349
2023-07-22 06:54:00+00:00,299.0,0.08,333.0,0.15,12.33,47.59359,-54.27349
2023-07-22 07:04:00+00:00,352.0,0.72,351.0,0.78,12.33,47.59359,-54.27349
2023-07-22 07:14:00+00:00,28.0,0.82,27.0,0.94,12.25,47.59359,-54.27349
2023-07-22 07:24:00+00:00,24.0,0.97,21.0,1.08,12.25,47.59359,-54.27349
2023-07-22 07:34:00+00:00,43.0,0.73,44.0,0.8,12.25,47.59359,-54.27349
2023-07-22 07:44:00+00:00,26.0,0.91,28.0,1.04,12.25,47.59359,-54.27349
2023-07-22 07:54:00+00:00,38.0,1.38,36.0,1.5,12.25,47.59359,-54.27349
2023-07-22 08:04:00+00:00,11.0,1.28,11.0,1.38,12.25,47.59359,-54.27349
2023-07-22 08:14:00+00:00,15.0,1.58,15.0,1.7,12.25,47.59359,-54.27349
2023-07-22 08:24:00+00:00,36.0,1.43,35.0,1.55,12.25,47.59359,-54.27349
2023-07-22 08:34:00+00:00,27.0,2.08,28.0,2.2,12.25,47.59359,-54.27349
2023-07-22 08:44:00+00:00,20.0,1.91,18.0,2.3,12.25,47.59359,-54.27349
2023-07-22 08:54:00+00:00,49.0,1.63,45.0,1.9,12.25,47.59359,-54.27349
2023-07-22 09:04:00+00:00,16.0,1.7,13.0,1.92,12.25,47.59359,-54.27349
2023-07-22 09:14:00+00:00,13.0,1.63,11.0,1.95,12.25,47.59359,-54.27349
2023-07-22 09:24:00+00:00,19.0,1.89,17.0,2.11,12.25,47.59359,-54.27349
2023-07-22 09:34:00+00:00,4.0,1.7,3.0,1.94,12.25,47.59359,-54.27349
2023-07-22 09:44:00+00:00,17.0,1.51,14.0,1.64,12.25,47.59359,-54.27349
2023-07-22 09:54:00+00:00,15.0,1.89,18.0,2.02,12.25,47.59359,-54.27349
2023-07-22 10:04:00+00:00,359.0,2.56,358.0,2.67,12.25,47.59359,-54.27349
2023-07-22 10:14:00+00:00,10.0,2.04,12.0,2.31,12.57,47.59359,-54.27349
2023-07-22 10:24:00+00:00,12.0,1.85,7.0,2.14,12.57,47.59359,-54.27349
2023-07-22 10:34:00+00:00,22.0,1.86,27.0,2.05,12.57,47.59359,-54.27349
2023-07-22 10:44:00+00:00,47.0,1.28,46.0,1.37,12.57,47.59359,-54.27349
2023-07-22 10:54:00+00:00,59.0,1.45,54.0,1.76,12.57,47.59359,-54.27349
2023-07-22 11:04:00+00:00,47.0,1.25,43.0,1.39,12.57,47.59359,-54.27349
2023-07-22 11:14:00+00:00,57.0,0.8,53.0,1.08,13.29,47.59359,-54.27349
2023-07-22 11:24:00+00:00,29.0,0.16,50.0,0.42,13.29,47.59359,-54.27349
2023-07-22 11:34:00+00:00,188.0,0.14,201.0,0.34,13.29,47.59359,-54.27349
2023-07-22 11:44:00+00:00,45.0,0.16,37.0,0.29,13.29,47.59359,-54.27349
2023-07-22 11:54:00+00:00,189.0,0.63,187.0,0.87,13.29,47.59359,-54.27349
2023-07-22 12:04:00+00:00,196.0,0.97,194.0,1.34,13.29,47.59359,-54.27349
2023-07-22 12:14:00+00:00,211.0,1.56,212.0,1.81,13.44,47.59359,-54.27349
2023-07-22 12:24:00+00:00,231.0,1.38,232.0,1.49,13.44,47.59359,-54.27349
2023-07-22 12:34:00+00:00,253.0,1.06,252.0,1.18,13.44,47.59359,-54.27349
2023-07-22 12:44:00+00:00,257.0,0.85,255.0,0.96,13.44,47.59359,-54.27349
2023-07-22 12:54:00+00:00,277.0,0.6,290.0,0.73,13.44,47.59359,-54.27349
2023-07-22 13:04:00+00:00,280.0,0.89,275.0,1.12,13.44,47.59359,-54.27349
2023-07-22 13:14:00+00:00,250.0,0.53,257.0,0.69,13.68,47.59359,-54.27349
2023-07-22 13:24:00+00:00,236.0,0.54,243.0,0.7,13.68,47.59359,-54.27349
2023-07-22 13:34:00+00:00,255.0,0.57,253.0,0.68,13.68,47.59359,-54.27349
2023-07-22 13:44:00+00:00,219.0,0.54,219.0,0.73,13.68,47.59359,-54.27349
2023-07-22 13:54:00+00:00,201.0,0.64,200.0,1.01,13.68,47.59359,-54.27349
2023-07-22 14:04:00+00:00,225.0,0.67,215.0,1.1,13.68,47.59359,-54.27349
2023-07-22 14:14:00+00:00,180.0,0.76,185.0,1.05,13.76,47.59359,-54.27349
2023-07-22 14:24:00+00:00,211.0,1.01,209.0,1.63,13.76,47.59359,-54.27349
2023-07-22 14:34:00+00:00,205.0,0.85,220.0,1.14,13.76,47.59359,-54.27349
2023-07-22 14:44:00+00:00,209.0,1.88,210.0,2.0,13.76,47.59359,-54.27349
2023-07-22 14:54:00+00:00,195.0,1.63,198.0,1.77,13.76,47.59359,-54.27349
2023-07-22 15:04:00+00:00,195.0,1.6,194.0,2.05,13.76,47.59359,-54.27349
2023-07-22 15:14:00+00:00,172.0,1.79,171.0,2.03,13.6,47.59359,-54.27349
2023-07-22 15:24:00+00:00,222.0,1.59,234.0,2.06,13.6,47.59359,-54.27349
2023-07-22 15:34:00+00:00,299.0,0.68,304.0,1.07,13.6,47.59359,-54.27349
2023-07-22 15:44:00+00:00,254.0,2.33,253.0,2.77,13.6,47.59359,-54.27349
2023-07-22 15:54:00+00:00,238.0,2.91,233.0,3.93,13.6,47.59359,-54.27349
2023-07-22 16:04:00+00:00,235.0,5.66,238.0,6.43,13.6,47.59359,-54.27349
2023-07-22 16:14:00+00:00,241.0,6.35,242.0,7.0,14.0,47.59359,-54.27349
2023-07-22 16:24:00+00:00,238.0,5.71,246.0,6.75,14.0,47.59359,-54.27349
2023-07-22 16:34:00+00:00,241.0,6.78,245.0,7.58,14.0,47.59359,-54.27349
2023-07-22 16:44:00+00:00,248.0,6.25,249.0,7.31,14.0,47.59359,-54.27349
2023-07-22 16:54:00+00:00,242.0,5.8,243.0,6.43,14.0,47.59359,-54.27349
2023-07-22 17:04:00+00:00,228.0,5.73,228.0,6.6,14.0,47.59359,-54.27349
2023-07-22 17:14:00+00:00,224.0,6.42,226.0,7.13,13.92,47.59359,-54.27349
2023-07-22 17:24:00+00:00,223.0,5.9,225.0,6.74,13.92,47.59359,-54.27349
2023-07-22 17:34:00+00:00,222.0,5.7,221.0,6.45,13.92,47.59359,-54.27349
2023-07-22 17:44:00+00:00,231.0,4.97,224.0,6.16,13.92,47.59359,-54.27349
2023-07-22 17:54:00+00:00,237.0,6.08,227.0,7.07,13.92,47.59359,-54.27349
2023-07-22 18:04:00+00:00,226.0,5.83,228.0,7.23,13.92,47.59359,-54.27349
2023-07-22 18:14:00+00:00,228.0,6.38,230.0,7.72,14.32,47.59359,-54.27349
2023-07-22 18:24:00+00:00,230.0,6.06,231.0,7.12,14.32,47.59359,-54.27349
2023-07-22 18:34:00+00:00,235.0,6.01,226.0,7.25,14.32,47.59359,-54.27349
2023-07-22 18:44:00+00:00,229.0,6.06,225.0,7.21,14.32,47.59359,-54.27349
2023-07-22 18:54:00+00:00,233.0,6.82,238.0,7.75,14.32,47.59359,-54.27349
2023-07-22 19:04:00+00:00,225.0,6.66,226.0,7.74,14.32,47.59359,-54.27349
2023-07-22 19:14:00+00:00,224.0,6.33,226.0,7.72,13.6,47.59359,-54.27349
2023-07-22 19:24:00+00:00,231.0,6.03,231.0,6.68,13.6,47.59359,-54.27349
2023-07-22 19:34:00+00:00,237.0,6.01,237.0,6.64,13.6,47.59359,-54.27349
2023-07-22 19:44:00+00:00,229.0,7.02,233.0,8.09,13.6,47.59359,-54.27349
2023-07-22 19:54:00+00:00,235.0,6.89,237.0,7.85,13.6,47.59359,-54.27349
2023-07-22 20:04:00+00:00,235.0,6.87,237.0,8.25,13.6,47.59359,-54.27349
2023-07-22 20:14:00+00:00,231.0,8.02,232.0,9.18,13.6,47.59359,-54.27349
2023-07-22 20:24:00+00:00,231.0,7.17,237.0,8.59,13.6,47.59359,-54.27349
2023-07-22 20:34:00+00:00,232.0,6.62,227.0,7.66,13.6,47.59359,-54.27349
2023-07-22 20:44:00+00:00,226.0,6.4,223.0,7.61,13.6,47.59359,-54.27349
2023-07-22 20:54:00+00:00,233.0,6.58,234.0,7.46,13.6,47.59359,-54.27349
2023-07-22 21:04:00+00:00,229.0,5.82,227.0,7.18,13.6,47.59359,-54.27349
2023-07-22 21:14:00+00:00,224.0,6.14,226.0,6.97,13.44,47.59359,-54.27349
2023-07-22 21:24:00+00:00,225.0,6.79,225.0,7.95,13.44,47.59359,-54.27349
2023-07-22 21:34:00+00:00,230.0,8.26,230.0,9.52,13.44,47.59359,-54.27349
2023-07-22 21:44:00+00:00,228.0,8.37,226.0,9.6,13.44,47.59359,-54.27349
2023-07-22 21:54:00+00:00,224.0,7.59,224.0,8.36,13.44,47.59359,-54.27349
2023-07-22 22:04:00+00:00,225.0,7.21,223.0,7.88,13.44,47.59359,-54.27349
2023-07-22 22:14:00+00:00,227.0,5.83,226.0,6.52,13.13,47.59359,-54.27349
2023-07-22 22:24:00+00:00,228.0,5.73,223.0,6.71,13.13,47.59359,-54.27349
2023-07-22 22:34:00+00:00,226.0,4.98,231.0,5.81,13.13,47.59359,-54.27349
2023-07-22 22:44:00+00:00,218.0,4.2,218.0,4.91,13.13,47.59359,-54.27349
2023-07-22 22:54:00+00:00,211.0,3.4,223.0,4.01,13.13,47.59359,-54.27349
2023-07-22 23:04:00+00:00,222.0,3.51,224.0,3.78,13.13,47.59359,-54.27349
2023-07-22 23:14:00+00:00,201.0,2.55,214.0,3.59,12.81,47.59359,-54.27349
2023-07-22 23:24:00+00:00,203.0,1.28,215.0,1.6,12.81,47.59359,-54.27349
2023-07-22 23:34:00+00:00,318.0,0.37,298.0,0.63,12.81,47.59359,-54.27349
2023-07-22 23:44:00+00:00,326.0,2.73,327.0,3.06,12.81,47.59359,-54.27349
2023-07-22 23:54:00+00:00,310.0,1.73,308.0,1.95,12.81,47.59359,-54.27349
